Location: Newark
(42.8481°N, 0.4872°E)
Time: 17:30:03
(UTC+00:00)

A-11 Canister half - Visible Passes

Search period start: 06 December 2021 00:00
Search period end: 16 December 2021 00:00
Orbit: 1516 x 1684 km, 47.2° (Epoch: 05 December)

Date Brightness Start Highest point End Pass type
(mag) Time Alt. Az. Time Alt. Az. Time Alt. Az.
06 Dec 10.7 04:26:45 10° S 04:34:16 27° SE 04:41:57 10° ENE visible
06 Dec 9.4 06:28:29 10° SW 06:38:03 74° SSE 06:48:00 10° ENE visible
07 Dec 10.7 04:04:13 10° S 04:11:26 25° SE 04:18:50 10° ENE visible
07 Dec 9.4 06:05:38 10° SW 06:15:07 72° SSE 06:25:02 10° ENE visible
08 Dec 10.7 03:41:42 10° S 03:48:37 23° SE 03:55:42 10° E visible
08 Dec 9.4 05:42:47 10° SW 05:52:13 69° SSE 06:02:03 10° ENE visible
09 Dec 10.8 03:19:20 10° S 03:25:49 21° SE 03:32:31 10° E visible
09 Dec 9.4 05:19:57 10° SW 05:29:19 66° SE 05:39:04 10° ENE visible
10 Dec 10.8 02:59:12 15° SSE 03:03:01 20° SE 03:09:19 10° E visible
10 Dec 9.4 04:57:31 11° SW 05:06:26 63° SE 05:16:06 10° ENE visible
11 Dec 10.8 02:38:44 17° SE 02:40:13 18° SE 02:46:04 10° E visible
11 Dec 9.4 04:37:01 22° SW 04:43:32 60° SE 04:53:07 10° ENE visible
11 Dec 9.1 06:38:49 10° W 06:48:28 76° NNW 06:58:30 10° ENE visible
12 Dec 10.9 02:18:01 16° ESE 02:18:01 16° ESE 02:22:45 10° E visible
12 Dec 9.4 04:16:17 33° SSW 04:20:40 57° SE 04:30:08 10° ENE visible
12 Dec 9.1 06:15:53 10° WSW 06:25:30 77° NNW 06:35:31 10° ENE visible
13 Dec 11.0 01:57:07 13° ESE 01:57:07 13° ESE 01:59:22 10° E visible
13 Dec 9.4 03:55:22 44° S 03:57:47 54° SE 04:07:09 10° ENE visible
13 Dec 9.0 05:53:37 13° WSW 06:02:33 79° NNW 06:12:32 10° ENE visible
14 Dec 9.4 03:34:18 50° SSE 03:34:55 51° SE 03:44:10 10° ENE visible
14 Dec 9.0 05:32:33 21° WSW 05:39:35 80° NNW 05:49:33 10° ENE visible
15 Dec 9.6 03:13:07 46° ESE 03:13:07 46° ESE 03:21:10 10° ENE visible
15 Dec 9.0 05:11:21 32° WSW 05:16:38 82° NNW 05:26:34 10° ENE visible
